Simultaneous Nadir Overpasses (SNOs) Predictions

Prediction of SNOs between LANDSAT-8 and NPP Satellite Orbit:

Table of predicted SNOs for the next 14.0 days since TLE Epoch: 6/6/2014
Index Date (LANDSAT-8) Time (LANDSAT-8) Lat,Lon (LANDSAT-8) SZA (LANDSAT-8 ) Date (NPP) Time (NPP) Lat,Lon (NPP) SZA (NPP ) Distance(km) Time Diff (sec)
1 06/07/2014 02:01:11 -70.88, -32.83 131.94 06/07/2014 01:59:59 -70.93, -33.67 131.86 30.98 72
2 06/07/2014 02:50:42 70.56, 134.33 47.75 06/07/2014 02:50:38 70.54, 134.28 47.74 2.26 4
3 06/07/2014 03:40:12 -70.45, -58.20 132.37 06/07/2014 03:41:20 -70.46, -58.27 132.36 3.04 68
4 06/09/2014 18:17:46 -70.62, 82.65 132.43 06/09/2014 18:16:51 -70.59, 82.67 132.45 2.41 55
5 06/09/2014 19:07:13 70.51,-109.86 47.47 06/09/2014 19:07:36 70.53,-109.91 47.48 2.45 23
6 06/09/2014 19:56:57 -69.64, 56.53 133.39 06/09/2014 19:58:03 -69.65, 58.76 133.42 86.33 66
7 06/12/2014 10:34:17 -70.55,-161.56 132.68 06/12/2014 10:33:49 -70.57,-161.52 132.66 2.75 28
8 06/12/2014 11:23:44 70.45, 5.92 47.22 06/12/2014 11:24:33 70.46, 5.97 47.22 2.27 49
9 06/15/2014 02:01:16 70.63, 146.80 47.26 06/15/2014 02:00:04 70.65, 146.81 47.29 2.18 72
10 06/15/2014 02:50:46 -70.53, -45.72 132.85 06/15/2014 02:50:46 -70.55, -45.72 132.82 3.22 0
11 06/15/2014 03:40:15 70.31, 121.60 46.94 06/15/2014 03:41:27 70.28, 122.02 46.91 16.13 72
12 06/17/2014 18:17:46 70.58, -97.39 47.13 06/17/2014 18:17:01 70.59, -97.31 47.13 2.87 45
13 06/17/2014 19:07:16 -70.48, 70.09 132.98 06/17/2014 19:07:43 -70.49, 70.17 132.98 3.02 27
14 06/20/2014 09:44:36 -71.33,-147.98 132.19 06/20/2014 09:43:28 -71.36,-150.15 132.10 77.26 68
15 06/20/2014 10:34:15 70.57, 18.48 47.08 06/20/2014 10:33:59 70.58, 18.48 47.08 0.59 16
16 06/20/2014 11:23:45 -70.47,-174.04 133.03 06/20/2014 11:24:41 -70.47,-174.04 133.03 0.56 56




NCC Satellite Simultaneous Nadir Overpasses (SNOs) Prediction Service
